www.pogodaiklimat.ru

Погода и климат >> Архив погоды >> Чехия >> Докшаны


ПОГОДА в Докшанах

  • Прогноз погоды в Докшанах
  • Монитор погоды в Докшанах

АРХИВ ПОГОДЫ в Докшанах

Время (UTC), дата Ветер
(напр.,м/с)
 
Видим.   Явления Облачность Т
(С)
Тd
(С)
f
(%)
Тe
(С)
Тes
(С)
Комфортность P
(гПа)
Po
(гПа)
Тmin
(С)
Tmax
(С)
R
(мм)
R24
(мм)
S
(см)
01 13.09 35 км н/о +14.7 +13.9 95 1029.5 1010.3
02 13.09 35 км н/о +14.8 +13.9 94 1029.3 1010.1
03 13.09 СВ 1 35 км {дымка} н/о +14.4 +13.9 97 +15 +15 1029.4 1010.1
04 13.09 35 км н/о +15.0 +14.1 94 1029.3 1010.1
05 13.09 35 км н/о +15.0 +14.0 94 1029.5 1010.3
06 13.09 нст 1 50 км 1/0
[Ci fib]
+16.4 +14.2 87 +17 +18 1029.5 1010.4 +13.7
07 13.09 60 км 5/3 1500 м
[Cu med, cong Ac As]
+18.1 +14.6 80 1029.8 1010.8
08 13.09 ЮЗ 4 65 км 4/4 1500 м
[Cu med, cong]
+19.9 +15.1 74 +22 +24 комфорт 1029.5 1010.6
09 13.09 ЮЗ 3 60 км 8/8 900 м
[Cu Sc]
+21.2 +14.8 67 +24 +25 комфорт 1029.4 1010.6
10 13.09 ЮЗ 4 45 км 9/9 1230 м
[Sc]
+21.4 +14.3 64 +24 +25 комфорт 1029.3 1010.5
11 13.09 З 5 45 км 8/8 1200 м
[Cu Sc]
+22.8 +13.2 55 +26 +27 жарко 1029.1 1010.4
12 13.09 З 5 45 км 8/3 1470 м
[Cu med, cong Ac As]
+23.3 +13.8 55 +27 +28 душно 1029.1 1010.4
13 13.09 З 5 45 км 9/5 1500 м
[Cu med, cong Ac As]
+22.8 +13.2 55 +26 +27 жарко 1029.2 1010.5
14 13.09 З 4 45 км 9/9 1230 м
[Cu Sc]
+22.9 +13.9 57 +26 +27 жарко 1029.3 1010.6
15 13.09 СЗ 4 45 км 9/1 1500 м
[Cu med, cong Ac As]
+22.8 +14.4 59 +26 +27 жарко 1029.2 1010.5
16 13.09 СЗ 3 45 км 9/0
[Ac As]
+22.0 +14.6 63 +25 +26 комфорт 1029.4 1010.6
17 13.09 СЗ 2 45 км 5/0
[Ac As Ci fib]
+21.0 +14.4 66 +25 +25 комфорт 1029.4 1010.6
18 13.09 СЗ 2 45 км 9/0 2000 м
[Ac As]
+19.7 +14.6 72 +22 +22 комфорт 1029.9 1011.0 +24.4
19 13.09 СЗ 3 45 км 9/6 1080 м
[Sc Ac As]
+19.9 +14.4 71 +22 +22 комфорт 1030.4 1011.5
20 13.09 35 км 9/4 1470 м
[Sc Ac As]
+18.5 +14.1 76 1031.1 1012.1
21 13.09 нст 1 35 км {дымка} н/о +18.1 +13.6 75 +19 +19 1031.7 1012.6
22 13.09 35 км н/о +18.1 +13.3 74 1032.1 1013.0
23 13.09 35 км н/о +17.0 +12.9 77 1032.5 1013.3
00 14.09 С 3 35 км {дымка} н/о +15.5 +11.5 77 +15 +15 1032.9 1013.6
01 14.09 35 км н/о +13.8 +11.0 83 1033.2 1013.8
02 14.09 СВ 1 35 км н/о +12.0 +10.4 90 +12 +12 1033.4 1013.9
03 14.09 СЗ 1 35 км {дымка} н/о +11.0 +10.8 99 +11 +11 1033.6 1014.0
04 14.09 35 км н/о +9.8 +9.8 100 1034.1 1014.4
05 14.09 Ю 1 35 км н/о +10.2 +10.2 100 +10 +10 1034.5 1014.8
06 14.09 нст 1 50 км 3/0
[Ci fib]
+12.4 +10.7 89 +12 +13 1034.5 1015.0 +9.6
07 14.09 50 км 4/0
[Ci fib]
+14.9 +7.8 62 1034.8 1015.4
08 14.09 В 3 60 км 3/0
[Ci fib]
+16.0 +7.2 56 +16 +19 1034.4 1015.1
09 14.09 В 3 60 км 3/3 1500 м
[Cu med, cong]
+17.0 +7.2 52 +17 +21 1034.0 1014.8
10 14.09 60 км 4/4 1110 м
[Cu med, cong]
+17.6 +7.6 52 1033.9 1014.7
11 14.09 СЗ 2 60 км 5/5 1350 м
[Cu med, cong]
+18.1 +7.7 51 +19 +24 1033.4 1014.3
12 14.09 нст 1 60 км 5/5 1440 м
[Cu med, cong]
+19.1 +7.5 47 +21 +26 комфорт 1032.8 1013.7
13 14.09 60 км 5/5 1500 м
[Cu med, cong Ci fib]
+19.4 +6.2 42 1032.1 1013.1
14 14.09 60 км 5/5 1050 м
[Cu med, cong Ci fib]
+19.7 +5.1 38 1031.1 1012.1
15 14.09 нст 1 60 км 4/3 1050 м
[Cu med, cong Ci fib]
+19.6 +5.3 39 +21 +23 комфорт 1030.5 1011.5
16 14.09 60 км 3/0
[Ci fib]
+19.8 +5.8 40 1030.0 1011.0
17 14.09 60 км 3/0
[Ci fib]
+17.6 +5.9 46 1030.2 1011.1
18 14.09 СВ 1 60 км 4/0
[Ci fib]
+13.8 +7.8 67 +14 +14 1030.4 1011.0 +21.1
19 14.09 50 км 1/0
[Ci fib]
+12.8 +7.6 71 1030.6 1011.2
20 14.09 50 км 1/0
[Ci fib]
+11.1 +7.6 79 1030.9 1011.3
21 14.09 штиль 0 35 км {дымка} н/о +10.1 +8.0 87 +9 +9 1030.7 1011.1
22 14.09 штиль 0 30 км н/о +9.3 +8.2 93 +8 +8 1030.3 1010.6
23 14.09 штиль 0 35 км н/о +7.9 +7.3 96 +7 +7 1029.9 1010.1
00 15.09 штиль 0 35 км {дымка} н/о +7.1 +6.9 99 +6 +6 1029.4 1009.6
01 15.09 Ю 1 30 км н/о +7.0 +6.9 99 +6 +6 1029.0 1009.2
02 15.09 ЮВ 1 19 км н/о +6.5 +6.5 100 +5 +5 1028.6 1008.8
03 15.09 ЮВ 1 17 км {дымка} н/о +6.1 +6.1 100 +5 +5 1028.1 1008.2
04 15.09 17 км н/о +5.6 +5.6 100 1027.7 1007.8
05 15.09 ЮВ 1 18 км н/о +5.4 +5.4 100 +4 +4 1027.8 1007.9
06 15.09 В 1 30 км 1/0
[Ci fib]
+8.4 +7.5 94 +8 +8 1027.3 1007.6 +5.2
07 15.09 35 км 4/0
[Ci fib]
+11.0 +8.2 83 1026.8 1007.3
08 15.09 30 км 1/0
[Ci fib]
+13.0 +8.7 75 1026.0 1006.7
09 15.09 нст 2 35 км 1/0
[Ci fib]
+15.3 +9.8 70 +15 +22 1025.4 1006.2
10 15.09 35 км 1/0
[Ci fib]
+18.0 +10.7 62 1024.3 1005.3
11 15.09 ЮЗ 2 30 км 3/0
[Ci fib]
+21.1 +12.6 58 +23 +32 комфорт 1022.7 1004.0
12 15.09 нст 2 35 км 5/0
[Ci fib]
+23.2 +13.6 55 +27 +35 душно 1021.7 1003.1
13 15.09 З 3 35 км 8/0
[Ci fib]
+25.0 +13.0 47 +27 +32 жарко 1020.4 1002.0
14 15.09 ЮЗ 6 45 км 8/0
[Ci fib]
+26.0 +12.0 42 +27 +29 жарко 1019.5 1001.1
15 15.09 З 4 45 км 8/0
[Ci fib]
+26.2 +11.1 39 +27 +29 жарко 1018.7 1000.4
16 15.09 З 4 35 км н/о +26.0 +12.7 44 +28 +28 жарко 1018.3 1000.0
17 15.09 З 3 45 км 8/0
[Ci fib]
+24.4 +13.0 49 +26 +26 жарко 1018.1 999.7
18 15.09 З 2 45 км 8/0
[Ci fib]
+21.9 +13.0 57 +25 +25 комфорт 1018.4 999.8 +26.7
19 15.09 40 км 8/0
[Ci fib]
+19.1 +12.8 67 1018.8 1000.0
20 15.09 45 км 4/0
[Ci fib]
+16.1 +12.7 80 1019.4 1000.4
21 15.09 Ю 2 35 км {дымка} н/о +14.7 +12.4 86 +14 +14 1019.5 1000.4
22 15.09 ЮЗ 2 35 км н/о +12.7 +11.8 94 +12 +12 1019.6 1000.4
23 15.09 35 км н/о +13.0 +11.8 92 1019.7 1000.5
00 16.09 нст 1 35 км {дымка} н/о +12.8 +11.1 89 +13 +13 1019.6 1000.4
01 16.09 ЮВ 2 35 км н/о +12.0 +10.4 90 +11 +11 1019.7 1000.4
02 16.09 ЮВ 1 35 км н/о +12.1 +11.0 93 +12 +12 1019.8 1000.5
03 16.09 нст 1 30 км {дымка} н/о +10.8 +10.2 96 +10 +10 1020.1 1000.7
04 16.09 штиль 0 30 км н/о +11.0 +10.6 97 +10 +10 1019.9 1000.6
05 16.09 Ю 2 35 км н/о +11.7 +11.1 96 +10 +10 1019.8 1000.5
06 16.09 Ю 1 35 км 9/9 1470 м
[Sc]
+13.6 +11.2 85 +14 +14 1019.9 1000.7 +10.2
07 16.09 Ю 1 40 км 10/10 1410 м
[Sc]
+15.5 +10.5 72 +16 +16 1020.0 1001.0
08 16.09 40 км 10/10 1500 м
[Sc]
+16.7 +11.0 69 1020.1 1001.1
09 16.09 нст 1 40 км 10/10 1230 м
[Sc]
+17.6 +11.7 68 +19 +19 1019.9 1001.0
10 16.09 45 км 9/4 1320 м
[Sc Ac As]
+18.0 +11.9 68 1018.8 1000.0
11 16.09 50 км 9/4 1500 м
[Sc Ac As]
+19.6 +11.9 61 1018.3 999.6
12 16.09 З 3 50 км 10/4 1440 м
[Sc Ac As]
+19.9 +11.6 59 +22 +23 комфорт 1017.6 998.9
13 16.09 30 км в посл. час ливневой дождь 10/4 1500 м
[Sc Ac As]
+19.5 +12.6 64 1017.2 998.5
14 16.09 30 км слаб. дождь 10/10 1410 м
[Sc]
+19.2 +12.8 66 1016.6 997.9
15 16.09 нст 1 30 км слаб. дождь 10/10 1470 м
[Sc]
+19.2 +12.8 66 +21 +21 комфорт 1016.3 997.6
16 16.09 С 4 16 км слаб. дождь 10/10 900 м
[Sc]
+17.0 +15.0 88 +17 +17 1016.9 998.0
17 16.09 СВ 1 18 км слаб. дождь 10/10 1200 м
[Sc]
+15.3 +15.2 99 +16 +16 1016.9 997.9
18 16.09 ЮВ 1 15 км слаб. дождь 10/10 1140 м
[Sc]
+15.3 +15.3 100 +16 +16 1016.9 997.9 +20.4 1
19 16.09 Ю 1 14 км слаб. дождь 10/10 1050 м
[Sc]
+15.2 +15.2 100 +16 +16 1017.1 998.1
20 16.09 С 3 16 км в посл. час дождь 10/10 960 м
[Sc]
+14.0 +13.7 98 +13 +13 1017.3 998.2
21 16.09 нст 2 35 км {дождь} н/о +13.6 +12.3 92 +13 +13 1017.3 998.2
22 16.09 35 км н/о +13.6 +11.7 88 1017.4 998.3
23 16.09 35 км н/о +13.3 +11.5 89 1017.2 998.1
00 17.09 нст 2 35 км {дождь} н/о +12.8 +10.5 86 +12 +12 1017.6 998.4 0.5
01 17.09 35 км н/о +11.7 +9.7 88 1017.6 998.4
02 17.09 СЗ 1 35 км н/о +10.3 +9.8 97 +10 +10 1017.8 998.5
03 17.09 СЗ 1 35 км {дымка} н/о +9.8 +9.2 96 +9 +9 1017.8 998.4
04 17.09 штиль 0 35 км н/о +10.0 +9.8 99 +9 +9 1017.8 998.4
05 17.09 35 км н/о +10.5 +9.7 95 1017.9 998.6
06 17.09 В 1 25 км 8/8 800 м
[Cu Sc]
+10.7 +10.1 96 +10 +10 1018.1 998.8 +9.4 0.5
07 17.09 25 км 8/8 1410 м
[Sc]
+12.6 +10.4 86 1017.9 998.7
08 17.09 З 4 30 км 8/8 900 м
[Cu Sc]
+14.5 +10.2 75 +13 +14 1017.5 998.4
09 17.09 З 5 40 км 5/5 1230 м
[Cu med, cong]
+16.0 +6.8 54 +15 +17 1017.0 998.0
10 17.09 З 6 45 км 6/6 1500 м
[Cu med, cong]
+15.9 +6.3 53 +15 +16 1016.8 997.8
11 17.09 З 6-12
{12}
55 км 5/5 1380 м
[Cu med, cong]
+17.6 +6.5 48 +17 +19 1015.9 997.1
12 17.09 З 5-11
{12}
50 км 8/8 1440 м
[Cu med, cong]
+17.4 +5.8 46 +17 +18 1015.6 996.7
13 17.09 СЗ 7
{12}
55 км 8/8 1500 м
[Cu med, cong]
+17.3 +6.5 49 +16 +17 1015.1 996.2
14 17.09 СЗ 9-14
{16}
55 км 8/8 1500 м
[Cu med, cong]
+18.0 +6.3 46 +17 +17 1014.5 995.7
15 17.09 З 7-12
{16}
55 км 5/5 1500 м
[Cu med, cong]
+17.2 +5.6 46 +16 +17 1014.8 995.9
16 17.09 З 7-13
{19}
35 км 8/4 1500 м
[Cu med, cong Ac As]
+16.9 +4.8 45 +16 +16 1014.6 995.7
17 17.09 З 8-13
{17}
35 км 9/9 1500 м
[Sc]
+15.7 +6.3 54 +14 +14 1015.0 996.0
18 17.09 СЗ 6
{19}
35 км в посл. час дождь 9/4 1500 м
[Sc Ac As]
+13.9 +7.7 66 +12 +12 1016.2 997.1 +19.0 0.0
19 17.09 З 5
{15}
35 км 4/0
[Ci fib]
+13.2 +5.5 60 +11 +11 1016.8 997.6
20 17.09 З 5
{11}
35 км 6/6 1200 м
[Cu Sc]
+13.2 +6.5 64 +11 +11 1017.6 998.4
21 17.09 СЗ 6
{15}
35 км {дымка} н/о +12.5 +5.2 61 +10 +10 1018.3 999.1
22 17.09 СЗ 8-13
{13}
35 км н/о +11.7 +3.7 58 +9 +9 1018.8 999.5
23 17.09 СЗ 7
{13}
35 км н/о +10.9 +3.7 61 +8 +8 1019.3 999.9
00 18.09 СЗ 8-13
{15}
35 км {дымка} н/о +10.8 +3.7 61 +7 +7 1019.8 1000.4
01 18.09 СЗ 8
{14}
35 км н/о +10.8 +3.9 62 +7 +7 1020.1 1000.7
02 18.09 СЗ 8
{15}
35 км н/о +10.2 +2.8 60 +7 +7 1020.6 1001.2
03 18.09 СЗ 4
{15}
35 км {дымка} н/о +9.3 +3.0 65 +7 +7 1021.4 1001.9
04 18.09 СЗ 3 35 км н/о +8.9 +3.5 69 +7 +7 1022.0 1002.4
05 18.09 СЗ 3 35 км н/о +8.7 +4.0 72 +6 +6 1022.5 1002.9
06 18.09 З 4
{15}
50 км 6/6 1080 м
[Cu med, cong]
+9.9 +4.1 67 +7 +7 1023.0 1003.5 +8.5
07 18.09 З 4 50 км 6/6 1050 м
[Cu med, cong]
+11.9 +4.6 61 +10 +11 1023.3 1003.9
08 18.09 З 6 60 км 5/4 1320 м
[Cu med, cong Ac As]
+13.9 +5.1 55 +12 +13 1023.4 1004.2
09 18.09 СЗ 6
{11}
60 км 5/5 1200 м
[Cu med, cong]
+14.4 +4.8 52 +13 +14 1023.6 1004.4
10 18.09 СЗ 5
{11}
60 км 6/6 1500 м
[Cu med, cong]
+14.2 +3.8 50 +13 +15 1023.7 1004.5
11 18.09 СЗ 5 60 км 6/6 900 м
[Cu med, cong]
+14.3 +3.2 47 +13 +15 1023.6 1004.4
12 18.09 СЗ 7-12
{12}
60 км 6/6 1110 м
[Cu med, cong]
+15.7 +3.5 44 +14 +15 1023.3 1004.2
13 18.09 СЗ 5
{11}
60 км 8/8 1200 м
[Cu med, cong]
+16.1 +4.3 45 +15 +16 1023.3 1004.2
14 18.09 СЗ 5 60 км 6/6 1170 м
[Cu med, cong]
+15.6 +3.6 45 +15 +16 1023.1 1004.0
15 18.09 СЗ 6-15
{15}
20 км ливневой дождь 6/6 1500 м
[Cu med, cong]
+12.2 +7.5 73 +10 +10 1023.4 1004.1
16 18.09 СЗ 4 30 км в посл. час переохл. осадки (гололёд) 8/8 1410 м
[Cu med, cong]
+14.2 +5.6 56 +13 +13 1023.1 1003.9
17 18.09 З 4 40 км 8/3 1260 м
[Cu med, cong Ac As]
+13.4 +4.0 53 +12 +12 1023.3 1004.0
18 18.09 З 2
{15}
40 км {ливн. осадки} 4/0
[Ac As]
+11.3 +4.2 62 +10 +10 1023.7 1004.3 +17.8 0.5
19 18.09 СЗ 2 40 км 3/0
[Ac trans]
+10.5 +5.2 70 +9 +9 1024.3 1004.8
20 18.09 СЗ 3 30 км 3/0
[Ac trans]
+10.5 +4.2 65 +9 +9 1024.6 1005.1
21 18.09 З 3 35 км {дымка} н/о +9.6 +4.3 70 +7 +7 1025.1 1005.5
22 18.09 З 3 35 км н/о +10.4 +4.3 66 +9 +9 1025.0 1005.5
23 18.09 З 3 35 км н/о +9.7 +4.6 71 +8 +8 1025.4 1005.8
00 19.09 нст 1 35 км {дымка} н/о +7.2 +4.5 83 +6 +6 1025.8 1006.1
01 19.09 35 км н/о +6.5 +4.2 85 1026.0 1006.2
02 19.09 ЮЗ 2 35 км н/о +6.6 +4.3 85 +4 +4 1026.2 1006.4
03 19.09 ЮЗ 4 35 км {дымка} н/о +7.5 +4.7 82 +4 +4 1026.3 1006.6
04 19.09 З 4 35 км н/о +7.1 +4.3 82 +4 +4 1026.2 1006.4
05 19.09 З 2 35 км н/о +7.3 +4.2 81 +5 +5 1026.8 1007.0
06 19.09 нст 2 50 км 5/5 1500 м
[Cu med, cong Ci fib]
+7.8 +4.4 79 +6 +6 1027.1 1007.4 +5.7
07 19.09 З 3 55 км 5/3 1110 м
[Cu med, cong Ci fib]
+10.0 +4.6 69 +8 +9 1027.6 1008.0
08 19.09 З 3 60 км 6/6 1500 м
[Sc]
+11.3 +4.8 64 +10 +11 1028.0 1008.5
09 19.09 СЗ 4 65 км 6/6 1110 м
[Sc]
+12.0 +4.0 58 +10 +12 1028.2 1008.7
10 19.09 СЗ 3 60 км 8/8 1140 м
[Cu med, cong]
+12.9 +3.7 54 +12 +13 1028.2 1008.8
11 19.09 СЗ 3 60 км 8/8 1260 м
[Cu med, cong]
+15.1 +4.1 48 +15 +16 1028.0 1008.8
12 19.09 СЗ 3 60 км 8/8 1080 м
[Cu med, cong]
+14.3 +2.6 45 +14 +15 1028.0 1008.7
13 19.09 СЗ 4 60 км 6/6 960 м
[Cu med, cong]
+16.1 +2.1 39 +15 +17 1027.6 1008.4
14 19.09 СЗ 5 60 км 6/6 1110 м
[Cu med, cong Ci fib]
+15.6 +1.9 40 +15 +16 1027.6 1008.4
15 19.09 С 3 60 км 9/4 1500 м
[Cu med, cong Ci sp]
+14.6 +2.4 44 +14 +15 1027.6 1008.3
16 19.09 СЗ 3 50 км 8/4 1380 м
[Cu med, cong Ci fib]
+13.6 +2.1 46 +13 +13 1027.6 1008.3
17 19.09 СЗ 2 50 км 5/1 1080 м
[Cu hum Ci fib]
+11.7 +2.8 54 +11 +11 1028.5 1009.0
18 19.09 СЗ 1 50 км 4/0
[Ci fib]
+9.6 +3.7 67 +9 +9 1029.1 1009.5 +16.7
19 19.09 50 км ясно +7.5 +3.0 73 1029.4 1009.6
20 19.09 50 км ясно +5.6 +2.4 80 1030.0 1010.1
21 19.09 Ю 1 35 км {дымка} н/о +5.4 +2.8 83 +4 +4 1030.4 1010.4
22 19.09 штиль 0 35 км н/о +4.1 +2.1 87 +3 +3 1030.5 1010.4
23 19.09 штиль 0 35 км н/о +2.5 +1.0 90 +1 +1 1030.6 1010.4
00 20.09 нст 1 35 км {дымка} н/о +2.3 +1.5 94 +1 +1 1030.3 1010.1

 

Местоположение метеостанции Докшаны (Чехия): широта 50.47 долгота 14.17 высота над уровнем моря 159 м.

В архиве по умолчанию представлена погода в Докшанах за последнюю неделю. Архивные данные за месяц целиком и за предыдущие месяцы, начиная с января 2011 года, Вы можете получить, выбрав интересующий диапазон дат из раскрывающегося списка и нажав кнопку "Ввод!".


*Определитесь, кто Вы:
робот инопланетянин человек

Внимание! Время в таблицах - всемирное. Для получения местного времени необходимо прибавить поправку, которая равна 1 ч.

Смотрите также архив погоды в соседних городах и на ближайших метеорологических станциях:

Погода в Милешовке (Чехия) (19 км)
Погода в Усти-над-Лабем (Чехия) (25 км)
Погода в Циннвальд-Георгенфельде (Германия) (41 км)
Погода в Праге (Чехия) (42 км)
Погода в Прага аэропорту (Чехия) (47 км)
Погода в Лихтенхайн-Миттельндорфе (Германия) (51 км)
Погода в Праге-Либус (Чехия) (54 км)
Погода в Тушимице (Чехия) (60 км)
Погода в Либереце (Чехия) (69 км)
Погода в Мариенберге (Германия) (75 км)

Пояснения к столбцам:

Ветер - указаны скорость ветра в м/с - средняя за 10 мин, порывы в срок и между сроками (в фигурных скобках) и направление, откуда дует ветер: С - северный, СВ - северо-восточный, В - восточный, ЮВ - юго-восточный, Ю - южный, ЮЗ - юго-западный, З - западный, СЗ - северо-западный.
Видимость - горизонтальная дальность видимости в метрах или километрах. При видимости от 1 до 10 км при отсутствии осадков обычно наблюдается дымка, при ухудшении видимости до 1 км и менее - туман. В сухую погоду видимость может ухудшаться дымом, пылью или мглою.
Явления - указаны атмосферные явления, наблюдавшиеся в срок или в последний час перед сроком; фигурными скобками обозначены явления, наблюдавшиеся между сроками (за 1-3 часа до срока); квадратными скобками обозначены град или гололедные отложения с указанием их диаметра в мм.
Облачность - указаны через наклонную черту общая и нижняя облачность в баллах и высота нижней границы облаков в метрах; квадратными скобками обозначены формы облаков: Ci - перистые, Cs - перисто-слоистые, Cc - перисто-кучевые, Ac - высококучевые, As - высокослоистые, Sc - слоисто-кучевые, Ns - слоисто-дождевые, Cu - кучевые, Cb - кучево-дождевые. Подробнее классификацию облаков см. в Атласе облаков (PDF).
T - Температура воздуха - температура, измеренная на высоте 2 м над землей.
Td - Температура точки росы - температура, при понижении до которой содержащийся в воздухе водяной пар достигнет насыщения.
f - Относительная влажность воздуха - влажноcть воздуха, измеренная на высоте 2 м над землей.
Te - Эффективная температура - температура, которую ощущает одетый по сезону человек в тени. Характеристика душности погоды. При расчете учитывается влияние влажности воздуха и скорости ветра на теплоощущения человека.
Tes - Эффективная температура на солнце - температура, которую ощущает человек, с поправкой на солнечный нагрев. Характеристика знойности погоды. Зависит от высоты солнца над горизонтом, облачности и скорости ветра. Ночью, в пасмурную погоду, а также при ветре 12 м/с и более поправка равна нулю.
P - Атмосферное давление - приведенное к уровню моря атмосферное давление.
Po - Атмосферное давление - измеренное на уровне метеостанции атмосферное давление.
Tmin - Минимальная температура - минимум температуры воздуха на высоте 2 м над землей.
Tmax - Максимальная температура - максимум температуры воздуха на высоте 2 м над землей.
R - Количество осадков - Количество выпавших осадков за период времени, мм. При наведении курсора мыши на число - период времени, за который выпало указанное количество осадков.
R24 - Количество осадков - Количество выпавших осадков за 24 часа, мм.
S - Снежный покров - Высота снежного покрова, см. При наведении курсора мыши на число - состояние снежного покрова и степень покрытия местности в баллах.